This is the latest recevied weather packets stored in our database for station/object OE8NDR-11. If no packets are shown the sender has not sent any weather packets the latest 10 day(s).
| Time | Temp. | Humidity | Pressure | Rain* | Wind** | Luminosity | Snow |
|---|---|---|---|---|---|---|---|
| 1777861095 | 13.89° C | 40% | 1018.8 hPa | 0 mm | - | - | - |
| 1777860795 | 13.89° C | 40% | 1018.8 hPa | 0 mm | - | - | - |
| 1777860495 | 13.89° C | 40% | 1018.8 hPa | 0 mm | - | - | - |
| 1777860195 | 13.89° C | 40% | 1018.8 hPa | 0 mm | - | - | - |
| 1777859895 | 13.89° C | 40% | 1018.7 hPa | 0 mm | - | - | - |
| 1777859595 | 13.89° C | 40% | 1018.8 hPa | 0 mm | - | - | - |
| 1777859295 | 14.44° C | 38% | 1018.7 hPa | 0 mm | - | - | - |
| 1777858995 | 15° C | 36% | 1018.7 hPa | 0 mm | - | - | - |
| 1777858695 | 15.56° C | 34% | 1018.7 hPa | 0 mm | - | - | - |
| 1777858395 | 15.56° C | 34% | 1018.7 hPa | 0 mm | - | - | - |
| 1777858095 | 15.56° C | 33% | 1018.6 hPa | 0 mm | - | - | - |
| 1777857795 | 15.56° C | 33% | 1018.6 hPa | 0 mm | - | - | - |
| 1777857495 | 15.56° C | 34% | 1018.5 hPa | 0 mm | - | - | - |
| 1777857195 | 15.56° C | 33% | 1018.5 hPa | 0 mm | - | - | - |
| 1777856895 | 15.56° C | 33% | 1018.5 hPa | 0 mm | - | - | - |
| 1777856595 | 15.56° C | 34% | 1018.5 hPa | 0 mm | - | - | - |
| 1777856295 | 15.56° C | 34% | 1018.5 hPa | 0 mm | - | - | - |
| 1777855995 | 15° C | 37% | 1018.6 hPa | 0 mm | - | - | - |
| 1777855695 | 15° C | 36% | 1018.6 hPa | 0 mm | - | - | - |
| 1777855395 | 15.56° C | 36% | 1018.6 hPa | 0 mm | - | - | - |
| 1777855095 | 15.56° C | 34% | 1018.6 hPa | 0 mm | - | - | - |
| 1777854795 | 15.56° C | 34% | 1018.5 hPa | 0 mm | - | - | - |
| 1777854495 | 15.56° C | 33% | 1018.5 hPa | 0 mm | - | - | - |
| 1777854195 | 15.56° C | 35% | 1018.4 hPa | 0 mm | - | - | - |
| 1777853896 | 15.56° C | 34% | 1018.6 hPa | 0 mm | - | - | - |
* Rain latest hour (hover to see other rain measurements)
** Current wind speed in m/s (hover to see current wind gust speed)